User: anonymous   Login
Location: Castellare
(42.4669°N, 9.4728°E)
Time: 06:33:50
(UTC+00:00)
Language:

COSMO-SKYMED 1 - Orbit

View from above orbital plane
View from above orbital plane
View from above satellite
View from above satellite

Ground track
Ground track

The orbit data is extracted from the following two-line orbital elements,

1 31598U 07023A   20152.73528111  .00000030  00000-0  10367-4 0  9990
2 31598  97.8864 336.1556 0001481  90.1964 269.9426 14.82155894702354
Epoch (UTC): 31 May 2020 17:38:48
Eccentricity: 0.0001481
inclination: 97.8864°
perigee height: 621 km
apogee height: 623 km
right ascension of ascending node: 336.1556°
argument of perigee: 90.1964°
revolutions per day: 14.82155894
mean anomaly at epoch: 269.9426°
orbit number at epoch: 70235

The dashed part of the orbit path shows where the satellite is in the earth's shadow,  

DLR